Ashtabula, OH

5:18 AM EDT on August 18, 2017 (GMT -0400)
Ashtabula County

Weather History for KHZY - October, 2012

Change the Weather History Date:

Monday, October 29, 2012

  Actual Average (KGKJ) Record (KGKJ)
Temperature  
Mean Temperature 42 °F -  
Max Temperature 43 °F 57 °F 75 °F (1989)
Min Temperature 41 °F 34 °F 18 °F (1965)
Degree Days  
Heating Degree Days 23    
Moisture  
Dew Point 38 °F    
Average Humidity 88    
Maximum Humidity 93    
Minimum Humidity 81    
Precipitation  
Precipitation 1.49 in - - ()
Sea Level Pressure  
Sea Level Pressure 29.74 in    
Wind  
Wind Speed 11 mph (North)    
Max Wind Speed 24 mph    
Max Gust Speed 40 mph    
Visibility 6 miles    
Events Rain    
Averages and records for this station are not official NWS values.
T = Trace of Precipitation, MM = Missing Value Source: NWS Daily Summary

Daily Weather History Graph

Daily Weather History Graph

Search for Another Location

Airport or City:

Trip Planner

Search our weather history database for the weather conditions in past years. The results will help you decide how hot, cold, wet, or windy it might be!

Date:

Astronomy

Oct. 29, 2012 Rise Set
Actual Time 7:51 AM EDT 6:20 PM EDT
Civil Twilight 7:23 AM EDT 6:49 PM EDT
Nautical Twilight 6:50 AM EDT 7:21 PM EDT
Astronomical Twilight 6:18 AM EDT 7:54 PM EDT
Moon 6:10 PM EDT (10/29) 7:41 AM EDT (10/29)
Length of Visible Light 11h 25m
Length of Day
10h 28m
Full, 100% of the Moon is Illuminated
Oct 29
Full
Oct 29
Full
Nov 6
Last Quarter
Nov 13
New
Nov 20
First Quarter

Hourly Weather History & Observations

Time (EDT) Temp. Windchill Dew Point Humidity Pressure Visibility Wind Dir Wind Speed Gust Speed Precip Events Conditions
12:53 AM 41.0 °F 35.2 °F 37.9 °F 89% 29.94 in 4.0 mi North 9.2 mph 20.7 mph 0.02 in Rain Light Rain
1:53 AM 41.0 °F 35.2 °F 37.9 °F 89% 29.93 in 5.0 mi NNE 9.2 mph 19.6 mph 0.02 in   Overcast
2:53 AM 41.0 °F 35.8 °F 37.9 °F 89% 29.91 in 4.0 mi North 8.1 mph - 0.03 in   Overcast
3:53 AM 41.0 °F 35.2 °F 37.9 °F 89% 29.89 in 6.0 mi North 9.2 mph 17.3 mph 0.03 in Rain Rain
4:53 AM 41.0 °F 35.2 °F 37.9 °F 89% 29.88 in 10.0 mi North 9.2 mph 17.3 mph 0.02 in Rain Light Rain
5:28 AM 41.0 °F 35.2 °F 37.4 °F 87% 29.86 in 7.0 mi North 9.2 mph - 0.02 in Rain Light Rain
5:53 AM 41.0 °F 35.2 °F 37.9 °F 89% 29.88 in 8.0 mi NNE 9.2 mph - 0.03 in Rain Light Rain
6:00 AM 41.0 °F 35.2 °F 37.4 °F 87% 29.87 in 6.0 mi North 9.2 mph - 0.00 in Rain Light Rain
6:07 AM 41.0 °F 37.1 °F 37.4 °F 87% 29.87 in 6.0 mi NNE 5.8 mph - 0.01 in Rain Light Rain
6:51 AM 41.0 °F 34.3 °F 37.4 °F 87% 29.86 in 9.0 mi North 11.5 mph 17.3 mph 0.03 in Rain Light Rain
6:53 AM 41.0 °F 36.4 °F 37.9 °F 89% 29.88 in 9.0 mi Variable 6.9 mph 17.3 mph 0.03 in Rain Light Rain
7:01 AM 41.0 °F 35.8 °F 37.4 °F 87% 29.85 in 8.0 mi North 8.1 mph 16.1 mph 0.00 in Rain Light Rain
7:53 AM 41.0 °F 35.2 °F 39.0 °F 93% 29.87 in 9.0 mi North 9.2 mph 18.4 mph 0.03 in Rain Light Rain
8:53 AM 41.0 °F 34.3 °F 39.0 °F 93% 29.86 in 10.0 mi NNE 11.5 mph 20.7 mph 0.03 in Rain Light Rain
9:53 AM 41.0 °F 34.7 °F 39.0 °F 93% 29.85 in 7.0 mi North 10.4 mph 20.7 mph 0.03 in Rain Light Rain
10:14 AM 42.8 °F 36.6 °F 39.2 °F 87% 29.83 in 10.0 mi North 11.5 mph 17.3 mph 0.01 in Rain Light Rain
10:53 AM 42.1 °F 37.7 °F 39.0 °F 89% 29.83 in 7.0 mi North 6.9 mph 17.3 mph 0.03 in Rain Light Rain
11:09 AM 42.8 °F 36.2 °F 39.2 °F 87% 29.81 in 6.0 mi North 12.7 mph 20.7 mph 0.01 in Rain Light Rain
11:53 AM 42.1 °F 36.1 °F 39.0 °F 89% 29.82 in 8.0 mi North 10.4 mph 19.6 mph 0.03 in Rain Light Rain
12:53 PM 42.1 °F 35.2 °F 39.0 °F 89% 29.79 in 8.0 mi North 12.7 mph 20.7 mph 0.04 in Rain Light Rain
1:53 PM 42.1 °F 35.7 °F 39.0 °F 89% 29.76 in 8.0 mi North 11.5 mph 19.6 mph 0.03 in Rain Light Rain
2:53 PM 42.1 °F 35.7 °F 39.0 °F 89% 29.73 in 4.0 mi North 11.5 mph - 0.04 in Rain Light Rain
3:53 PM 43.0 °F 37.7 °F 39.9 °F 89% 29.70 in 5.0 mi North 9.2 mph 21.9 mph 0.04 in Rain Light Rain
4:53 PM 43.0 °F 35.7 °F 39.9 °F 89% 29.66 in 4.0 mi North 15.0 mph 25.3 mph 0.04 in Rain Rain
5:53 PM 42.1 °F 33.9 °F 39.0 °F 89% 29.62 in 5.0 mi North 17.3 mph 29.9 mph 0.05 in Rain Rain
6:16 PM 42.8 °F 34.8 °F 37.4 °F 81% 29.60 in 4.0 mi North 17.3 mph 33.4 mph 0.03 in Rain Heavy Rain
6:53 PM 42.1 °F 34.2 °F 37.9 °F 85% 29.59 in 4.0 mi North 16.1 mph 26.5 mph 0.07 in Rain Rain
7:53 PM 42.1 °F 34.9 °F 39.0 °F 89% 29.55 in 4.0 mi North 13.8 mph 25.3 mph 0.08 in Rain Heavy Rain
8:34 PM 42.8 °F 33.8 °F 37.4 °F 81% 29.49 in 4.0 mi North 21.9 mph 35.7 mph 0.07 in Rain Rain
8:53 PM 41.0 °F 32.8 °F 37.9 °F 89% 29.49 in 7.0 mi North 16.1 mph 38.0 mph 0.13 in Rain Rain
9:53 PM 41.0 °F 31.1 °F 37.9 °F 89% 29.46 in 4.0 mi North 23.0 mph 34.5 mph 0.25 in Rain Heavy Rain
10:53 PM 41.0 °F 31.6 °F 37.9 °F 89% 29.40 in 3.0 mi North 20.7 mph 38.0 mph 0.21 in Rain Heavy Rain
11:32 PM 41.0 °F 30.9 °F 37.4 °F 87% 29.34 in 5.0 mi North 24.2 mph 39.1 mph 0.13 in Rain Rain
11:53 PM 42.1 °F 32.6 °F 37.9 °F 85% 29.32 in 6.0 mi North 23.0 mph 40.3 mph 0.18 in Rain Light Rain